SCP
0 0 0 0 0 0 0 -0 -0 -0 -0 -0 -0 -0 -0 -0 -0 -0 -0 -0 -0 -0 -0 -0 -0 -0 -0 -0 -0 -0 -0 -0 -0 -0 -0 -0 -0 -0 -0 -0 0 0 -0
1 1 0 0 1 1 0 0 -0 -0 -0 -0 -0 -0 -0 -0 -0 -0 -0 -0 -0 -0 -0 -0 -0 -0 -0 -0 -0 -0 -0 -0 -0 -0 -0 -0 -0 -0 -0 -0 0 0 -0
1 1 1 0 1 1 1 0 0 0 -0 -0 -0 -0 -0 -0 -0 -0 -0 -0 -0 -0 -0 -0 -0 -0 -0 -0 -0 -0 -0 -0 -0 -0 -0 0 -0 -0 -0 -0 -0 -0 -0
0 1 1 1 1 1 1 1 0 0 0 -0 -0 -0 -0 -0 -0 -0 -0 -0 -0 -0 -0 -0 -0 -0 -0 -0 -0 -0 -0 -0 -0 -0 -0 0 -0 -0 -0 -0 -0 -0 -0
0 0 1 1 1 1 1 1 1 1 0 0 -0 0 -0 -0 -0 -0 -0 -0 -0 -0 -0 -0 -0 -0 -0 -0 -0 -0 -0 -0 -0 -0 -0 -0 0 -0 -0 -0 -0 -0 0
0 0 1 1 1 1 1 1 1 1 1 0 0 0 0 0 -0 0 -0 -0 -0 -0 -0 -0 -0 -0 -0 -0 -0 -0 -0 -0 -0 0 0 0 0 -0 -0 -0 -0 -0 0
0 0 0 1 1 1 1 1 1 1 1 1 0 0 0 0 -0 -0 -0 -0 -0 -0 -0 -0 -0 -0 -0 -0 -0 -0 -0 -0 0 -0 -0 -0 -0 -0 -0 -0 -0 0 0
1 1 1 0 0 1 1 1 1 1 1 1 1 0 0 0 0 -0 0 -0 -0 -0 -0 -0 -0 -0 -0 -0 -0 -0 -0 0 -0 -0 -0 -0 0 -0 -0 0 0 0 0
0 0 1 1 1 0 1 1 1 1 1 1 1 0 0 0 0 0 0 0 -0 -0 -0 -0 -0 -0 -0 -0 -0 -0 0 0 -0 -0 -0 -0 -0 -0 0 0 0 0 0
0 0 0 1 1 1 1 1 1 1 1 1 1 1 0 0 0 0 0 0 0 -0 -0 -0 -0 -0 0 0 -0 0 0 0 -0 -0 -0 -0 0 0 0 0 0 0 0
0 0 0 0 1 1 1 1 1 1 1 1 1 1 0 0 0 0 0 0 0 0 0 -0 0 0 0 0 0 0 0 -0 -0 -0 -0 -0 0 0 0 0 0 0 0
0 0 0 0 0 1 1 1 1 1 1 2 1 0 1 0 0 0 0 0 0 0 0 0 0 0 0 0 0 0 -0 -0 -0 -0 -0 -0 0 0 0 0 0 0 0
0 0 0 0 0 0 1 1 1 1 1 1 0 0 0 0 0 0 0 0 0 0 0 0 0 0 0 0 0 0 -0 -0 -0 -0 -0 -0 0 0 0 0 0 0 0
0 0 0 0 0 0 0 1 1 1 1 0 0 0 0 0 0 0 0 0 0 0 0 0 0 0 0 0 0 0 -0 -0 -0 -0 -0 0 0 0 0 0 0 0 0
0 0 0 0 0 0 0 0 1 1 1 0 0 0 0 0 0 0 0 0 0 0 0 0 0 0 0 0 0 0 -0 -0 -0 -0 -0 0 0 0 0 0 0 0 0
0 0 0 0 0 0 0 0 0 1 1 0 0 0 0 0 0 0 0 0 0 0 0 0 0 0 0 0 0 0 -0 0 -0 -0 0 0 0 0 0 0 0 0 0
0 0 0 0 0 0 0 0 0 1 1 0 0 0 0 0 0 0 0 0 0 0 0 0 0 0 0 0 0 0 0 0 0 0 0 0 0 0 0 0 0 0 0
0 0 0 0 0 0 0 0 0 0 0 1 0 0 0 0 0 0 0 0 0 0 0 0 0 0 0 0 0 0 0 0 0 0 0 0 0 0 0 0 0 0 0
0 0 0 0 0 0 0 0 0 0 0 0 0 0 0 0 0 0 0 0 0 0 0 0 0 0 0 0 0 0 0 0 0 0 0 0 0 0 0 0 0 -0 -0
0 0 0 0 0 0 0 0 0 0 0 0 0 0 0 0 0 0 0 0 0 0 0 0 0 0 0 0 0 0 0 0 0 0 0 0 0 0 0 0 0 0 0
0 0 0 0 0 0 0 0 0 0 0 0 0 0 0 0 0 0 0 0 0 0 0 0 0 0 0 0 0 0 0 0 0 0 0 0 0 0 0 0 0 0 0
0 0 0 0 0 0 0 0 0 0 0 0 0 0 0 0 0 0 0 0 0 0 0 0 0 0 0 0 0 0 0 0 0 0 0 0 0 0 0 0 0 0 0
0 0 0 0 0 0 0 0 0 0 0 0 0 0 0 0 0 0 0 0 0 0 0 0 0 0 0 0 0 0 0 0 0 0 0 0 0 0 0 0 0 0 0
0 0 0 0 0 0 0 0 0 0 0 0 0 0 0 0 0 0 0 0 0 0 0 0 0 0 0 0 0 0 0 0 0 0 0 0 0 0 0 0 0 0 0
0 0 0 0 0 0 0 0 0 0 0 0 0 0 0 0 0 0 0 0 0 0 0 0 0 0 0 0 0 0 0 0 0 0 0 0 0 0 0 0 0 0 0
0 0 0 1 0 0 1 1 0 0 0 0 0 0 0 0 0 0 0 0 0 0 0 0 0 0 0 0 0 0 0 0 0 0 0 0 0 0 0 0 0 0 0
Wind_Speed_500mb
41 46 57 57 54 52 50 47 45 44 40 35 31 27 23 19 21 32 36 32 33 44 38 35 35 37 37 39 39 32 25 26 25 24 25 25 26 27 28 30 29 32 35
34 48 60 59 56 53 48 45 44 43 41 37 35 31 26 24 29 35 35 34 36 43 38 34 33 36 34 34 31 26 23 22 24 25 25 28 34 32 34 34 36 36 40
27 49 62 60 56 52 49 45 45 43 41 40 37 34 30 27 31 38 38 33 48 43 37 36 34 34 31 29 26 24 23 25 25 27 27 32 37 34 35 36 34 35 37
24 45 59 58 54 52 48 45 45 43 40 40 38 34 33 31 33 37 38 42 46 38 37 34 34 32 29 26 24 23 25 26 25 25 27 32 34 32 32 29 34 33 35
26 37 51 56 52 51 48 46 45 41 40 41 39 36 35 34 37 46 41 38 40 36 34 35 32 30 25 21 21 24 25 25 24 25 26 27 31 29 29 30 31 31 31
30 35 49 55 55 52 49 48 46 41 41 42 39 38 36 36 37 45 39 38 35 31 32 34 32 28 24 21 23 22 22 23 21 23 25 26 32 27 28 29 30 26 30
31 35 50 53 55 53 52 48 46 43 41 44 39 40 39 38 40 44 40 38 35 33 33 34 31 28 26 23 20 20 21 22 20 23 26 27 28 26 26 28 25 27 27
27 27 47 50 52 51 51 50 47 43 42 43 41 41 40 40 37 42 40 39 36 33 34 35 32 28 23 22 20 20 21 21 21 23 25 26 26 26 25 25 25 26 25
31 32 43 50 53 51 52 53 50 48 44 43 42 43 42 40 37 39 44 38 34 34 36 37 33 26 23 22 20 20 22 21 21 22 24 26 26 25 25 23 23 25 23
28 32 37 46 55 54 55 55 54 50 47 44 45 46 43 41 38 38 44 38 34 36 39 36 34 29 25 22 22 23 23 22 20 21 22 23 23 23 23 22 23 23 23
22 30 36 45 49 54 57 57 56 53 50 47 48 49 45 44 41 40 45 39 37 37 39 38 36 30 25 22 21 23 21 20 18 17 18 20 19 21 21 21 21 21 20
5 24 32 42 48 53 59 61 61 57 54 54 54 55 50 47 45 45 44 41 40 40 40 40 39 32 26 22 24 22 19 19 16 13 13 15 16 17 19 19 18 17 17
19 12 22 39 45 52 57 61 62 60 59 58 58 58 55 52 49 51 49 46 45 45 45 45 42 34 28 24 22 20 17 16 14 11 9 10 11 12 13 13 13 14 14
30 24 21 21 41 53 57 62 65 66 65 63 63 63 61 61 56 57 55 49 48 48 48 46 42 38 32 25 21 19 15 13 11 8 6 6 6 7 7 7 9 9 10
48 36 30 26 28 47 60 61 66 69 69 67 68 68 68 66 62 62 58 55 52 52 51 49 46 43 37 30 25 21 14 12 9 6 4 3 2 2 2 4 5 7 9
64 53 43 36 32 35 50 61 67 75 75 75 74 74 72 72 66 66 66 61 58 57 54 50 49 45 39 32 25 23 15 11 7 4 4 2 2 3 3 5 6 7 8
69 68 58 50 40 41 37 51 69 70 80 81 80 79 76 75 72 70 68 65 64 62 58 55 53 47 42 35 28 22 18 13 10 8 6 6 4 5 5 7 8 10 10
63 67 68 61 52 47 47 40 61 73 77 83 85 85 82 81 77 73 68 69 68 67 64 61 57 51 44 37 31 25 18 18 16 12 10 9 6 6 4 7 8 11 13
63 62 70 70 62 51 51 49 46 64 69 83 87 86 86 85 80 74 72 73 74 73 71 66 60 53 49 40 32 26 23 21 18 17 14 13 10 9 10 10 10 12 14
62 59 60 71 72 60 52 54 50 52 71 61 86 80 86 87 84 78 77 76 79 78 76 71 63 56 47 38 35 32 26 25 23 21 19 18 16 15 15 14 13 14 18
71 58 59 66 77 71 67 62 61 57 41 77 63 81 85 86 89 86 83 79 83 85 82 75 66 58 52 46 40 35 31 29 27 26 23 21 19 19 18 18 19 17 18
75 68 66 66 79 82 78 71 69 58 58 52 66 79 90 91 94 96 90 87 89 89 85 81 73 65 55 53 50 41 26 33 34 31 27 25 22 21 19 21 22 20 19
84 72 72 75 76 87 83 74 68 65 65 72 81 75 78 92 93 99 95 90 86 90 90 86 77 70 65 61 55 36 18 22 36 36 32 28 25 22 19 21 23 22 22
82 75 71 74 73 87 84 81 74 79 78 67 78 79 90 83 83 111 101 96 91 97 93 87 80 72 67 66 63 58 32 19 24 24 39 34 28 23 21 24 22 18 17
62 65 62 71 81 86 85 81 80 86 79 68 72 85 96 103 97 102 91 93 86 93 96 90 85 75 71 69 68 64 56 33 27 19 24 37 33 28 26 25 23 20 20
52 59 56 66 77 75 80 76 83 87 83 78 70 86 98 88 98 100 99 94 85 91 101 92 85 75 72 70 68 66 63 51 42 36 27 27 29 29 27 25 22 21 21
Wind_Direction_500mb
185 184 178 175 173 173 173 170 169 170 171 169 167 165 161 153 146 138 132 132 130 132 127 121 117 119 119 119 116 113 97 90 88 89 93 95 89 85 89 87 85 80 76
183 180 179 178 176 176 176 175 171 171 171 170 167 163 158 153 149 144 136 137 131 129 126 128 122 123 127 123 119 112 102 92 92 94 96 91 91 87 83 86 85 80 81
194 177 180 181 180 180 179 178 173 171 171 170 168 164 157 153 151 147 140 134 131 129 132 133 134 125 132 125 119 110 99 99 100 101 100 94 89 87 88 88 78 83 85
188 179 183 183 185 186 182 180 176 172 172 171 169 166 159 152 149 148 139 136 135 140 138 140 136 140 137 132 119 111 101 100 100 100 95 93 90 88 85 82 91 90 85
185 186 187 187 187 189 186 182 178 175 174 172 170 168 162 152 143 141 135 137 148 151 150 141 145 143 139 129 117 116 102 99 98 95 92 91 99 101 91 97 85 85 76
187 192 193 191 190 192 190 186 182 179 176 173 174 169 163 155 152 149 149 152 149 154 146 148 150 146 138 130 119 110 101 101 102 100 99 95 92 91 89 87 93 82 81
194 196 198 197 194 194 192 189 186 182 179 177 176 172 167 163 166 161 158 157 151 150 153 156 154 149 140 127 114 111 108 106 105 103 96 91 93 90 88 93 87 92 77
216 209 202 200 199 197 195 193 190 187 182 181 179 176 174 172 172 171 167 163 156 154 157 159 158 154 144 130 124 116 114 113 111 103 97 95 97 87 86 89 82 81 87
231 220 210 203 205 200 200 198 195 191 188 184 184 181 180 179 176 177 175 170 161 160 160 162 163 161 148 139 132 126 120 118 113 107 100 98 92 83 83 84 79 80 80
233 228 221 217 207 206 203 203 201 197 192 189 186 187 186 185 183 184 181 177 168 163 163 165 168 165 154 145 132 127 124 122 121 113 103 97 92 83 81 78 77 77 75
222 234 228 222 218 213 209 206 205 203 197 193 191 191 192 190 188 186 185 184 172 168 169 171 172 170 162 148 136 130 127 130 125 115 105 100 94 83 76 74 73 73 71
209 227 231 231 228 224 216 211 208 205 202 197 197 193 196 195 191 189 187 187 182 175 175 175 175 176 168 158 147 139 133 137 131 122 111 101 92 83 76 70 69 69 65
263 244 236 234 233 229 224 217 212 208 205 204 201 200 198 195 195 193 191 187 187 182 179 176 178 180 175 167 157 148 140 137 140 133 120 102 86 78 75 72 68 63 57
273 262 262 242 237 235 230 222 217 211 207 206 205 205 201 198 196 196 195 190 189 185 183 180 179 180 178 175 165 155 147 138 139 146 134 106 88 78 68 63 57 53 47
273 265 261 264 246 236 236 230 221 214 211 209 210 207 207 204 200 198 199 198 192 189 186 183 181 180 181 183 177 171 162 155 140 145 145 148 125 86 31 5 14 15 19
266 264 258 257 257 246 237 233 230 219 215 212 211 212 209 210 205 202 202 201 194 191 188 187 185 184 182 187 189 183 178 183 184 182 199 221 234 253 281 311 323 337 347
268 260 255 258 258 255 242 235 230 229 222 218 214 214 213 212 210 210 204 200 195 191 189 188 186 185 188 191 196 196 195 213 224 238 241 247 255 277 304 288 309 311 306
270 262 254 249 249 254 247 240 232 231 229 225 220 216 215 212 214 214 207 201 196 193 191 189 190 191 192 196 199 201 215 232 233 233 240 237 254 254 281 299 300 302 306
262 260 253 244 244 245 246 245 237 231 228 232 221 218 216 214 215 219 212 203 198 195 194 193 194 198 198 194 199 214 220 224 230 234 247 248 252 255 264 280 279 284 286
262 257 249 241 234 235 243 245 243 236 236 214 215 220 222 218 213 219 217 208 200 197 196 194 197 199 201 199 204 210 217 220 228 240 246 243 249 261 266 269 280 284 281
256 247 243 242 231 231 234 238 241 242 237 235 221 219 225 221 219 217 217 212 205 201 200 198 198 202 198 203 204 208 215 222 229 235 236 238 249 256 261 274 280 282 283
251 248 247 243 235 227 231 234 240 240 239 240 230 222 223 224 225 218 217 212 207 203 202 201 201 198 203 206 205 208 210 225 227 229 231 232 239 247 257 277 278 276 275
250 245 245 244 237 227 229 230 233 236 237 229 224 221 221 225 227 224 217 215 210 208 205 203 204 206 204 204 210 199 199 219 217 221 223 232 239 242 253 268 268 274 274
251 250 250 233 232 225 226 223 229 232 229 229 226 222 228 225 217 223 216 214 212 215 209 206 207 209 211 207 206 212 216 217 194 207 219 226 233 234 250 263 258 267 273
248 249 247 230 225 218 222 222 227 230 233 237 230 225 228 220 216 221 221 214 214 219 214 211 210 212 214 216 216 212 216 223 215 201 209 222 228 231 246 252 257 259 264
245 245 248 229 229 223 217 228 233 230 232 230 231 225 218 218 216 218 212 213 216 226 219 214 213 215 217 221 222 222 223 221 218 214 222 220 222 230 238 239 239 249 255
Wind_Speed_850mb
41 46 57 57 54 52 50 47 45 44 40 35 31 27 23 19 21 32 36 32 33 44 38 35 35 37 37 39 39 32 25 26 25 24 25 25 26 27 28 30 29 32 35
34 48 60 59 56 53 48 45 44 43 41 37 35 31 26 24 29 35 35 34 36 43 38 34 33 36 34 34 31 26 23 22 24 25 25 28 34 32 34 34 36 36 40
27 49 62 60 56 52 49 45 45 43 41 40 37 34 30 27 31 38 38 33 48 43 37 36 34 34 31 29 26 24 23 25 25 27 27 32 37 34 35 36 34 35 37
24 45 59 58 54 52 48 45 45 43 40 40 38 34 33 31 33 37 38 42 46 38 37 34 34 32 29 26 24 23 25 26 25 25 27 32 34 32 32 29 34 33 35
26 37 51 56 52 51 48 46 45 41 40 41 39 36 35 34 37 46 41 38 40 36 34 35 32 30 25 21 21 24 25 25 24 25 26 27 31 29 29 30 31 31 31
30 35 49 55 55 52 49 48 46 41 41 42 39 38 36 36 37 45 39 38 35 31 32 34 32 28 24 21 23 22 22 23 21 23 25 26 32 27 28 29 30 26 30
31 35 50 53 55 53 52 48 46 43 41 44 39 40 39 38 40 44 40 38 35 33 33 34 31 28 26 23 20 20 21 22 20 23 26 27 28 26 26 28 25 27 27
27 27 47 50 52 51 51 50 47 43 42 43 41 41 40 40 37 42 40 39 36 33 34 35 32 28 23 22 20 20 21 21 21 23 25 26 26 26 25 25 25 26 25
31 32 43 50 53 51 52 53 50 48 44 43 42 43 42 40 37 39 44 38 34 34 36 37 33 26 23 22 20 20 22 21 21 22 24 26 26 25 25 23 23 25 23
28 32 37 46 55 54 55 55 54 50 47 44 45 46 43 41 38 38 44 38 34 36 39 36 34 29 25 22 22 23 23 22 20 21 22 23 23 23 23 22 23 23 23
22 30 36 45 49 54 57 57 56 53 50 47 48 49 45 44 41 40 45 39 37 37 39 38 36 30 25 22 21 23 21 20 18 17 18 20 19 21 21 21 21 21 20
5 24 32 42 48 53 59 61 61 57 54 54 54 55 50 47 45 45 44 41 40 40 40 40 39 32 26 22 24 22 19 19 16 13 13 15 16 17 19 19 18 17 17
19 12 22 39 45 52 57 61 62 60 59 58 58 58 55 52 49 51 49 46 45 45 45 45 42 34 28 24 22 20 17 16 14 11 9 10 11 12 13 13 13 14 14
30 24 21 21 41 53 57 62 65 66 65 63 63 63 61 61 56 57 55 49 48 48 48 46 42 38 32 25 21 19 15 13 11 8 6 6 6 7 7 7 9 9 10
48 36 30 26 28 47 60 61 66 69 69 67 68 68 68 66 62 62 58 55 52 52 51 49 46 43 37 30 25 21 14 12 9 6 4 3 2 2 2 4 5 7 9
64 53 43 36 32 35 50 61 67 75 75 75 74 74 72 72 66 66 66 61 58 57 54 50 49 45 39 32 25 23 15 11 7 4 4 2 2 3 3 5 6 7 8
69 68 58 50 40 41 37 51 69 70 80 81 80 79 76 75 72 70 68 65 64 62 58 55 53 47 42 35 28 22 18 13 10 8 6 6 4 5 5 7 8 10 10
63 67 68 61 52 47 47 40 61 73 77 83 85 85 82 81 77 73 68 69 68 67 64 61 57 51 44 37 31 25 18 18 16 12 10 9 6 6 4 7 8 11 13
63 62 70 70 62 51 51 49 46 64 69 83 87 86 86 85 80 74 72 73 74 73 71 66 60 53 49 40 32 26 23 21 18 17 14 13 10 9 10 10 10 12 14
62 59 60 71 72 60 52 54 50 52 71 61 86 80 86 87 84 78 77 76 79 78 76 71 63 56 47 38 35 32 26 25 23 21 19 18 16 15 15 14 13 14 18
71 58 59 66 77 71 67 62 61 57 41 77 63 81 85 86 89 86 83 79 83 85 82 75 66 58 52 46 40 35 31 29 27 26 23 21 19 19 18 18 19 17 18
75 68 66 66 79 82 78 71 69 58 58 52 66 79 90 91 94 96 90 87 89 89 85 81 73 65 55 53 50 41 26 33 34 31 27 25 22 21 19 21 22 20 19
84 72 72 75 76 87 83 74 68 65 65 72 81 75 78 92 93 99 95 90 86 90 90 86 77 70 65 61 55 36 18 22 36 36 32 28 25 22 19 21 23 22 22
82 75 71 74 73 87 84 81 74 79 78 67 78 79 90 83 83 111 101 96 91 97 93 87 80 72 67 66 63 58 32 19 24 24 39 34 28 23 21 24 22 18 17
62 65 62 71 81 86 85 81 80 86 79 68 72 85 96 103 97 102 91 93 86 93 96 90 85 75 71 69 68 64 56 33 27 19 24 37 33 28 26 25 23 20 20
52 59 56 66 77 75 80 76 83 87 83 78 70 86 98 88 98 100 99 94 85 91 101 92 85 75 72 70 68 66 63 51 42 36 27 27 29 29 27 25 22 21 21
Wind_Direction_850mb
185 184 178 175 173 173 173 170 169 170 171 169 167 165 161 153 146 138 132 132 130 132 127 121 117 119 119 119 116 113 97 90 88 89 93 95 89 85 89 87 85 80 76
183 180 179 178 176 176 176 175 171 171 171 170 167 163 158 153 149 144 136 137 131 129 126 128 122 123 127 123 119 112 102 92 92 94 96 91 91 87 83 86 85 80 81
194 177 180 181 180 180 179 178 173 171 171 170 168 164 157 153 151 147 140 134 131 129 132 133 134 125 132 125 119 110 99 99 100 101 100 94 89 87 88 88 78 83 85
188 179 183 183 185 186 182 180 176 172 172 171 169 166 159 152 149 148 139 136 135 140 138 140 136 140 137 132 119 111 101 100 100 100 95 93 90 88 85 82 91 90 85
185 186 187 187 187 189 186 182 178 175 174 172 170 168 162 152 143 141 135 137 148 151 150 141 145 143 139 129 117 116 102 99 98 95 92 91 99 101 91 97 85 85 76
187 192 193 191 190 192 190 186 182 179 176 173 174 169 163 155 152 149 149 152 149 154 146 148 150 146 138 130 119 110 101 101 102 100 99 95 92 91 89 87 93 82 81
194 196 198 197 194 194 192 189 186 182 179 177 176 172 167 163 166 161 158 157 151 150 153 156 154 149 140 127 114 111 108 106 105 103 96 91 93 90 88 93 87 92 77
216 209 202 200 199 197 195 193 190 187 182 181 179 176 174 172 172 171 167 163 156 154 157 159 158 154 144 130 124 116 114 113 111 103 97 95 97 87 86 89 82 81 87
231 220 210 203 205 200 200 198 195 191 188 184 184 181 180 179 176 177 175 170 161 160 160 162 163 161 148 139 132 126 120 118 113 107 100 98 92 83 83 84 79 80 80
233 228 221 217 207 206 203 203 201 197 192 189 186 187 186 185 183 184 181 177 168 163 163 165 168 165 154 145 132 127 124 122 121 113 103 97 92 83 81 78 77 77 75
222 234 228 222 218 213 209 206 205 203 197 193 191 191 192 190 188 186 185 184 172 168 169 171 172 170 162 148 136 130 127 130 125 115 105 100 94 83 76 74 73 73 71
209 227 231 231 228 224 216 211 208 205 202 197 197 193 196 195 191 189 187 187 182 175 175 175 175 176 168 158 147 139 133 137 131 122 111 101 92 83 76 70 69 69 65
263 244 236 234 233 229 224 217 212 208 205 204 201 200 198 195 195 193 191 187 187 182 179 176 178 180 175 167 157 148 140 137 140 133 120 102 86 78 75 72 68 63 57
273 262 262 242 237 235 230 222 217 211 207 206 205 205 201 198 196 196 195 190 189 185 183 180 179 180 178 175 165 155 147 138 139 146 134 106 88 78 68 63 57 53 47
273 265 261 264 246 236 236 230 221 214 211 209 210 207 207 204 200 198 199 198 192 189 186 183 181 180 181 183 177 171 162 155 140 145 145 148 125 86 31 5 14 15 19
266 264 258 257 257 246 237 233 230 219 215 212 211 212 209 210 205 202 202 201 194 191 188 187 185 184 182 187 189 183 178 183 184 182 199 221 234 253 281 311 323 337 347
268 260 255 258 258 255 242 235 230 229 222 218 214 214 213 212 210 210 204 200 195 191 189 188 186 185 188 191 196 196 195 213 224 238 241 247 255 277 304 288 309 311 306
270 262 254 249 249 254 247 240 232 231 229 225 220 216 215 212 214 214 207 201 196 193 191 189 190 191 192 196 199 201 215 232 233 233 240 237 254 254 281 299 300 302 306
262 260 253 244 244 245 246 245 237 231 228 232 221 218 216 214 215 219 212 203 198 195 194 193 194 198 198 194 199 214 220 224 230 234 247 248 252 255 264 280 279 284 286
262 257 249 241 234 235 243 245 243 236 236 214 215 220 222 218 213 219 217 208 200 197 196 194 197 199 201 199 204 210 217 220 228 240 246 243 249 261 266 269 280 284 281
256 247 243 242 231 231 234 238 241 242 237 235 221 219 225 221 219 217 217 212 205 201 200 198 198 202 198 203 204 208 215 222 229 235 236 238 249 256 261 274 280 282 283
251 248 247 243 235 227 231 234 240 240 239 240 230 222 223 224 225 218 217 212 207 203 202 201 201 198 203 206 205 208 210 225 227 229 231 232 239 247 257 277 278 276 275
250 245 245 244 237 227 229 230 233 236 237 229 224 221 221 225 227 224 217 215 210 208 205 203 204 206 204 204 210 199 199 219 217 221 223 232 239 242 253 268 268 274 274
251 250 250 233 232 225 226 223 229 232 229 229 226 222 228 225 217 223 216 214 212 215 209 206 207 209 211 207 206 212 216 217 194 207 219 226 233 234 250 263 258 267 273
248 249 247 230 225 218 222 222 227 230 233 237 230 225 228 220 216 221 221 214 214 219 214 211 210 212 214 216 216 212 216 223 215 201 209 222 228 231 246 252 257 259 264
245 245 248 229 229 223 217 228 233 230 232 230 231 225 218 218 216 218 212 213 216 226 219 214 213 215 217 221 222 222 223 221 218 214 222 220 222 230 238 239 239 249 255